This demonstration page uses our WeatherBlox Daily Observations layout. Learn more.

Left ArrowRight Arrow

Hourly Observations for December 30, 2021

Temp ( °F °C ) Dew Point ( °F °C ) Humidity (%) Winds ( mph kmh ) Pressure ( in mb ) Visibility ( mi km ) Precip ( " mm )
12:56 am 00:56 Cloudy 20 -6.7 14 -10.1 77 77 Calm 29.97 1015 10 16 0.00 0.00
1:56 am 01:56 Cloudy 21 -6.1 13 -10.3 72 72 Calm 29.96 1015 10 16 0.00 0.00
2:56 am 02:56 Mostly Cloudy 21 -5.9 14 -10.1 73 73 SSE 5 7 29.97 1015 10 16 0.00 0.00
3:56 am 03:56 Mostly Cloudy 22 -5.8 14 -10.1 72 72 SSE 6 9 29.95 1014 10 16 0.00 0.00
4:56 am 04:56 Cloudy 22 -5.5 15 -9.6 73 73 SE 7 11 29.91 1013 10 16 0.00 0.00
5:56 am 05:56 Mostly Cloudy 22 -5.3 15 -9.4 73 73 S 5 7 29.90 1012 10 16 0.00 0.00
6:56 am 06:56 Mostly Cloudy 22 -5.5 15 -9.2 75 75 S 6 9 29.90 1012 10 16 0.00 0.00
7:41 am 07:41 Clear 21 -6 16 -9 80 80 S 9 15 29.89 1012 10 16 0.00 0.00
7:56 am 07:56 Mostly Sunny 21 -6.2 15 -9.3 79 79 S 6 9 29.89 1012 10 16 0.00 0.00
8:18 am 08:18 Mostly Cloudy 21 -6 16 -9 80 80 S 7 11 29.89 1012 10 16 0.00 0.00
8:56 am 08:56 Cloudy 24 -4.7 17 -8.3 76 76 S 6 9 29.90 1012 10 16 0.00 0.00
9:56 am 09:56 Cloudy 27 -3 18 -7.7 70 70 S 7 11 29.90 1012 8 13 0.00 0.00
10:56 am 10:56 Sunny 31 -0.3 19 -7.1 61 61 SSW 14 22 29.86 1011 9 14 0.00 0.00
11:56 am 11:56 undefined 34 1.1 20 -6.9 56 56 S 14 22 29.83 1010 9 14 0.00 0.00
12:56 pm 12:56 undefined 37 3 20 -6.4 50 50 SSW 17 28 29.78 1008 10 16 0.00 0.00
1:56 pm 13:56 Sunny 40 4.3 21 -6.3 46 46 S 17 28 29.73 1007 10 16 0.00 0.00
2:56 pm 14:56 Sunny 41 4.9 21 -6 46 46 S 14 22 29.72 1007 10 16 0.00 0.00
3:56 pm 15:56 undefined 42 5.3 21 -6.3 43 43 SSW 12 19 29.73 1007 10 16 0.00 0.00
4:56 pm 16:56 Sunny 39 3.9 20 -6.4 47 47 S 7 11 29.73 1007 10 16 0.00 0.00
5:56 pm 17:56 Clear 34 0.9 20 -6.4 59 59 S 7 11 29.74 1007 10 16 0.00 0.00
6:56 pm 18:56 Clear 33 0.5 22 -5.5 64 64 Calm 29.75 1007 10 16 0.00 0.00
7:56 pm 19:56 Clear 31 -0.3 22 -5.7 67 67 E 3 6 29.77 1008 10 16 0.00 0.00
8:56 pm 20:56 Clear 29 -1.7 21 -6.1 72 72 Calm 29.77 1008 10 16 0.00 0.00
9:56 pm 21:56 Clear 29 -1.5 21 -6.1 71 71 SE 3 6 29.77 1008 10 16 0.00 0.00
10:56 pm 22:56 Clear 29 -1.8 20 -6.4 71 71 Calm 29.73 1007 10 16 0.00 0.00
11:56 pm 23:56 Clear 27 -2.7 20 -6.9 73 73 SE 3 6 29.72 1007 10 16 0.00 0.00

Powered by AerisWeather